Evansville, IN

7:14 AM CDT on August 17, 2017 (GMT -0500)
Evansville Regional

Weather History for KEVV - September, 2013

Change the Weather History Date:

Saturday, September 28, 2013

  Actual Average Record
Temperature  
Mean Temperature 71 °F 64 °F  
Max Temperature 84 °F 76 °F 94 °F (1939)
Min Temperature 57 °F 51 °F 31 °F (1942)
Degree Days  
Heating Degree Days 0 4  
Month to date heating degree days 10 37  
Since 1 July heating degree days 10 38  
Cooling Degree Days 6 3  
Month to date cooling degree days 209 162  
Year to date cooling degree days 1401 1361  
Growing Degree Days 20 (Base 50)    
Moisture  
Dew Point 56 °F    
Average Humidity 65    
Maximum Humidity 93    
Minimum Humidity 37    
Precipitation  
Precipitation 0.00 in 0.11 in 1.88 in (1974)
Month to date precipitation 2.25 2.84  
Year to date precipitation 37.58 33.76  
Snow  
Snow 0.00 in 0.00 in 0.00 in (2002)
Month to date snowfall 0.0 0.0  
Since 1 July snowfall 0.0 0.0  
Since 1 September snowfall 0.0 0.0  
Snow Depth 0.00 in    
Sea Level Pressure  
Sea Level Pressure 30.08 in    
Wind  
Wind Speed 5 mph (South)    
Max Wind Speed 16 mph    
Max Gust Speed 22 mph    
Visibility 10 miles    
Events      
T = Trace of Precipitation, MM = Missing Value Source: NWS Daily Summary

Daily Weather History Graph

Daily Weather History Graph

Search for Another Location

Airport or City:

Trip Planner

Search our weather history database for the weather conditions in past years. The results will help you decide how hot, cold, wet, or windy it might be!

Date:

Astronomy

Sep. 28, 2013 Rise Set
Actual Time 6:43 AM CDT 6:37 PM CDT
Civil Twilight 6:17 AM CDT 7:03 PM CDT
Nautical Twilight 5:46 AM CDT 7:34 PM CDT
Astronomical Twilight 5:15 AM CDT 8:04 PM CDT
Moon 12:35 AM CDT (9/28) 2:51 PM CDT (9/28)
Length of Visible Light 12h 46m
Length of Day
11h 53m
Waning Crescent, 36% of the Moon is Illuminated
Sep 28
Waning Crescent
Oct 4
New
Oct 11
First Quarter
Oct 18
Full
Oct 26
Last Quarter

Hourly Weather History & Observations

Time (CDT) Temp. Heat Index Dew Point Humidity Pressure Visibility Wind Dir Wind Speed Gust Speed Precip Events Conditions
12:54 AM 61.0 °F - 57.0 °F 87% 30.09 in 10.0 mi ENE 5.8 mph - N/A   Clear
1:54 AM 61.0 °F - 55.9 °F 83% 30.08 in 10.0 mi Calm Calm - N/A   Clear
2:54 AM 60.1 °F - 55.9 °F 86% 30.08 in 10.0 mi Calm Calm - N/A   Clear
3:54 AM 59.0 °F - 55.9 °F 90% 30.08 in 10.0 mi Calm Calm - N/A   Partly Cloudy
4:54 AM 57.9 °F - 55.0 °F 90% 30.09 in 10.0 mi ENE 4.6 mph - N/A   Scattered Clouds
5:54 AM 59.0 °F - 55.9 °F 90% 30.10 in 10.0 mi Calm Calm - N/A   Mostly Cloudy
6:54 AM 57.9 °F - 55.9 °F 93% 30.12 in 9.0 mi Calm Calm - N/A   Mostly Cloudy
7:54 AM 62.1 °F - 57.9 °F 86% 30.13 in 10.0 mi Calm Calm - N/A   Partly Cloudy
8:54 AM 69.1 °F - 61.0 °F 75% 30.14 in 10.0 mi Calm Calm - N/A   Partly Cloudy
9:54 AM 73.9 °F - 61.0 °F 64% 30.14 in 10.0 mi SSW 8.1 mph - N/A   Scattered Clouds
10:54 AM 77.0 °F - 61.0 °F 58% 30.14 in 10.0 mi SSW 8.1 mph - N/A   Clear
11:54 AM 79.0 °F - 57.9 °F 48% 30.12 in 10.0 mi SSW 10.4 mph - N/A   Clear
12:54 PM 81.0 °F 81.0 °F 57.0 °F 44% 30.11 in 10.0 mi South 12.7 mph 18.4 mph N/A   Clear
1:54 PM 82.0 °F 81.3 °F 54.0 °F 38% 30.08 in 10.0 mi South 10.4 mph - N/A   Clear
2:54 PM 82.0 °F 81.4 °F 55.0 °F 39% 30.06 in 10.0 mi South 13.8 mph - N/A   Scattered Clouds
3:54 PM 80.1 °F 80.0 °F 54.0 °F 40% 30.05 in 10.0 mi South 11.5 mph - N/A   Clear
4:54 PM 80.1 °F 80.0 °F 54.0 °F 40% 30.04 in 10.0 mi South 11.5 mph - N/A   Clear
5:54 PM 78.1 °F - 55.0 °F 45% 30.04 in 10.0 mi South 8.1 mph - N/A   Partly Cloudy
6:54 PM 73.9 °F - 55.0 °F 52% 30.05 in 10.0 mi South 3.5 mph - N/A   Clear
7:54 PM 69.1 °F - 55.9 °F 63% 30.05 in 10.0 mi SSW 3.5 mph - N/A   Clear
8:54 PM 66.0 °F - 55.9 °F 70% 30.06 in 10.0 mi Calm Calm - N/A   Clear
9:54 PM 68.0 °F - 55.9 °F 65% 30.05 in 10.0 mi South 3.5 mph - N/A   Clear
10:54 PM 64.0 °F - 55.9 °F 75% 30.05 in 10.0 mi South 4.6 mph - N/A   Clear
11:54 PM 66.0 °F - 57.0 °F 73% 30.04 in 10.0 mi South 4.6 mph - N/A   Clear